Wind_Speed
62 62 62 62 63 63 63 63 63 64 65 67 69 70 71 72 73 75 76 78 79 79 80 80 79 78 78 76 74 72 71 70 70 70 70 70 70 70 71 71 72 73 74 75 75 76 77 78 79 80 81 82 83 84 84 85 85 86 87 87 87 87 87 87 86 84 81 81 83 85 86 85 85 85 84 83 82 81 80 81 82 83 84 85 85
64 64 64 65 65 65 65 65 65 66 67 69 71 72 74 75 77 78 79 80 80 81 81 80 79 78 77 75 73 72 71 70 70 70 70 70 71 71 72 73 73 74 75 77 78 79 80 81 82 83 83 84 85 86 86 86 86 86 87 87 87 87 88 87 87 86 84 82 82 84 86 87 87 88 88 87 87 86 84 83 83 84 84 85 85
66 66 67 67 67 67 67 67 68 69 70 72 74 75 77 78 79 80 80 81 82 82 82 80 79 78 76 74 72 71 70 70 70 70 70 71 71 72 73 74 75 77 78 80 81 82 83 84 85 85 85 85 85 86 85 85 85 85 85 85 84 84 85 85 84 84 83 81 79 80 82 83 83 85 87 87 88 88 87 85 85 85 85 86 86
69 69 69 69 69 69 68 69 70 71 73 75 77 79 80 81 81 81 82 82 83 82 81 80 78 77 74 73 72 71 70 70 70 71 71 72 73 74 75 77 79 80 82 83 84 85 85 85 85 84 83 83 83 83 82 82 81 81 80 80 79 79 79 79 79 79 79 77 75 75 76 77 77 78 80 81 82 84 84 84 84 84 84 85 86
71 71 71 70 70 70 70 71 72 74 76 78 80 82 82 82 82 83 83 83 83 82 80 79 77 75 73 72 71 71 71 71 72 72 73 74 75 77 78 80 82 83 84 84 83 83 82 81 81 81 80 80 79 78 77 76 76 75 74 73 73 73 72 72 72 73 73 73 71 71 71 72 72 72 74 76 76 77 78 78 79 79 79 79 81
73 72 72 71 70 71 71 73 74 77 79 81 82 83 83 83 83 83 83 83 82 81 80 78 76 74 73 72 72 72 72 73 73 74 75 76 78 80 81 83 83 83 82 80 79 79 79 79 78 78 77 76 75 74 73 72 71 70 69 68 67 67 67 67 68 68 69 69 69 68 68 69 70 69 70 73 74 74 74 74 73 74 74 73 73
73 72 72 71 71 71 73 75 77 79 81 82 83 84 84 84 83 83 82 81 80 80 78 76 75 73 73 72 72 73 73 74 75 76 77 79 80 82 82 81 79 78 77 77 77 77 77 77 76 75 73 72 71 70 68 67 66 66 65 65 65 65 65 66 67 68 68 68 68 68 68 68 70 70 70 72 73 74 74 74 72 71 72 72 71
72 72 71 71 71 72 74 77 79 81 82 83 84 84 84 83 83 82 81 80 79 78 77 75 74 73 73 73 74 74 75 76 77 78 80 81 81 80 77 75 74 74 75 75 76 75 74 73 72 70 69 68 67 66 65 65 64 64 65 65 65 65 66 66 67 67 67 67 67 67 67 67 68 70 70 71 72 73 74 75 73 71 71 71 70
71 71 71 71 71 73 76 79 81 82 83 83 84 83 83 82 82 81 80 79 78 77 75 74 74 73 74 74 75 76 77 78 79 80 80 79 77 74 72 71 72 73 73 73 72 71 70 69 67 66 65 65 64 64 64 65 64 64 64 65 65 65 64 64 65 65 65 65 65 65 65 64 66 67 67 68 70 71 71 72 72 71 71 70 68
70 71 70 71 72 75 78 80 82 83 83 83 83 82 81 81 80 79 78 77 76 75 74 74 74 74 75 76 77 77 78 79 79 78 76 73 71 70 70 70 71 71 70 70 68 67 65 64 63 63 63 63 63 63 64 64 63 63 63 63 63 63 62 62 63 63 63 63 63 64 64 63 64 66 66 65 67 68 68 68 68 67 67 67 65
70 70 70 72 75 78 80 82 82 82 82 82 82 81 80 79 78 77 76 75 74 74 74 74 74 75 76 77 77 78 79 78 76 73 71 69 68 69 69 69 69 68 67 66 64 63 62 61 61 61 61 61 61 61 61 61 61 61 61 61 61 61 62 62 62 63 63 63 62 63 64 64 63 65 65 65 65 65 65 65 65 64 63 63 60
69 70 71 74 77 79 81 81 82 81 81 81 80 79 78 77 76 75 74 73 73 74 74 75 76 77 77 77 78 78 76 73 70 68 68 68 68 68 67 67 66 65 64 62 61 60 59 59 59 59 59 59 59 59 59 59 59 59 59 59 60 61 62 63 63 64 65 64 63 63 65 65 64 64 66 66 64 64 64 63 63 63 61 60 58
69 71 74 77 79 80 81 81 80 80 80 79 78 77 76 75 74 73 72 73 73 74 75 76 77 77 77 77 76 74 70 68 67 67 67 68 68 67 65 65 64 63 61 60 58 58 57 57 57 57 57 58 58 58 58 58 58 58 58 59 59 60 62 63 65 66 67 67 66 66 67 68 67 66 67 68 66 64 63 62 62 62 60 58 56
72 74 76 78 79 80 80 79 79 79 78 77 76 75 73 72 71 71 72 72 73 74 76 77 77 77 76 74 71 67 66 66 66 66 67 67 67 65 64 63 62 61 59 58 57 56 56 56 56 56 56 57 57 57 57 57 57 57 58 59 60 61 62 63 65 67 69 70 70 69 69 71 70 68 68 69 68 66 64 63 62 61 60 57 55
74 76 77 79 80 79 79 78 78 77 76 75 73 72 71 70 71 71 72 73 74 75 76 77 76 75 72 68 65 64 66 67 66 66 67 67 66 64 63 62 61 59 58 57 56 55 55 56 56 56 56 56 56 57 57 57 57 58 58 59 60 61 62 64 66 67 69 70 71 72 71 71 72 70 69 69 68 66 64 62 61 61 60 56 53
75 77 78 79 79 78 78 77 76 74 73 72 71 70 69 70 71 72 73 74 75 76 76 75 73 69 65 63 63 65 66 66 66 66 66 66 65 63 62 61 60 58 57 56 55 55 55 55 55 55 55 55 56 57 57 57 58 58 59 59 60 61 62 65 67 68 69 71 71 72 72 71 71 69 68 67 67 65 64 61 59 60 59 54 51
76 78 79 79 78 78 77 75 72 71 70 70 69 69 69 70 71 73 74 75 75 75 73 70 66 63 62 63 64 65 65 66 66 66 66 65 64 62 61 60 59 57 56 55 55 55 55 55 55 55 55 56 56 57 58 58 59 59 59 60 61 62 64 66 68 68 69 70 70 70 68 67 65 63 61 61 60 61 60 58 56 57 56 53 50
77 79 79 78 77 76 73 71 70 69 69 69 68 69 70 71 72 74 74 75 74 71 67 63 61 61 62 64 65 65 65 66 66 66 65 64 63 62 60 59 58 56 56 55 55 55 56 56 56 56 57 57 58 58 59 60 61 61 61 62 62 64 66 67 68 68 69 68 67 65 62 60 58 56 54 53 52 53 54 53 52 52 51 50 49
79 79 78 76 74 72 70 69 68 68 68 68 69 70 71 72 73 74 74 73 69 64 61 60 60 62 63 64 65 65 65 66 66 65 64 63 62 61 60 58 57 56 56 55 55 56 57 57 58 58 59 59 60 60 61 62 63 63 64 64 65 66 67 68 69 69 68 65 62 59 56 54 52 50 48 46 45 46 46 46 45 46 45 44 45
78 77 75 73 71 69 68 68 68 68 68 69 70 71 72 73 74 73 71 67 62 59 59 60 61 62 64 65 66 65 65 65 65 64 63 63 62 60 58 57 57 56 56 56 56 56 57 58 59 59 60 61 61 62 63 64 65 65 65 66 67 68 69 69 70 69 66 61 58 55 52 49 47 44 42 40 39 39 39 39 39 40 40 39 39
75 73 72 70 69 68 68 68 68 68 69 70 71 73 74 74 72 69 64 61 59 59 59 60 62 63 65 65 66 66 65 65 64 64 63 62 61 59 58 57 56 57 57 57 57 57 58 59 60 61 62 62 63 64 64 65 65 66 66 67 69 70 71 72 71 67 62 58 55 52 48 43 39 37 36 35 35 35 35 35 35 35 36 36 35
72 71 70 69 68 68 68 68 69 69 70 72 73 74 74 71 67 62 60 59 59 59 60 61 63 65 65 66 66 65 65 64 64 64 63 62 60 59 58 57 57 58 58 58 58 59 59 60 61 62 63 63 64 65 65 65 66 66 66 68 69 71 73 73 70 63 59 56 52 47 42 37 35 34 34 34 35 35 34 34 34 34 34 34 34
71 70 69 69 68 68 68 69 70 71 72 74 74 73 69 65 61 59 59 59 59 60 61 63 64 65 66 66 66 65 65 64 64 63 62 61 60 59 59 59 59 59 59 59 59 59 60 61 62 63 63 64 65 65 66 66 66 66 66 68 69 71 73 73 67 61 57 53 47 41 38 37 36 36 36 36 36 36 35 34 34 34 33 33 34
71 70 69 69 69 69 70 71 72 73 74 74 71 67 63 60 59 59 59 60 60 61 62 64 65 66 66 66 65 65 64 64 63 62 62 61 60 60 60 61 61 61 61 60 60 60 60 62 63 63 64 64 65 66 66 66 66 66 67 68 69 71 73 71 64 58 54 48 42 39 39 39 39 38 37 36 36 35 34 33 34 34 33 33 33
70 69 69 69 69 70 71 73 74 74 73 70 66 62 60 59 59 59 60 60 61 62 64 65 66 66 66 66 65 65 64 64 63 62 61 61 61 61 62 62 63 63 62 61 60 60 61 62 63 63 64 64 64 65 65 66 66 66 67 68 69 71 72 68 60 54 49 43 40 40 40 40 40 39 37 36 35 34 33 33 34 34 33 32 32
69 69 70 70 71 72 73 74 74 73 69 65 61 60 59 59 59 60 60 62 63 64 65 66 66 66 66 66 65 65 64 63 62 61 61 61 61 62 63 63 64 64 62 61 60 61 62 62 62 63 64 64 64 65 65 65 65 65 66 68 69 71 71 66 57 50 44 41 41 41 41 41 40 39 38 37 37 36 35 34 34 34 33 33 32
70 70 71 72 73 74 74 74 72 68 64 61 60 60 59 59 59 60 61 63 64 65 66 66 66 66 66 65 64 64 63 62 61 61 61 62 62 63 64 64 64 63 62 61 61 62 62 62 62 63 64 64 64 64 64 64 64 65 66 68 69 71 70 63 55 47 41 40 41 41 41 41 40 39 38 39 39 39 38 36 35 34 34 34 33
71 72 72 73 74 75 74 71 67 63 61 60 60 60 59 60 61 62 63 65 66 66 66 67 67 66 66 65 64 64 63 63 62 63 63 63 63 63 64 65 65 64 62 62 62 62 62 61 62 62 63 63 63 64 63 64 64 65 66 68 69 71 68 61 52 45 41 41 42 41 41 41 40 39 39 40 40 40 39 38 37 36 36 36 36
72 73 74 75 74 72 69 65 62 60 60 60 60 60 61 62 63 64 65 66 67 68 68 68 68 68 67 66 65 65 64 64 64 64 64 64 64 64 64 64 65 64 62 62 62 62 61 61 62 62 62 63 63 63 62 63 63 64 66 67 69 70 67 58 49 43 42 42 42 41 41 41 40 39 39 40 40 40 40 39 38 38 37 37 37
74 75 75 73 70 66 63 61 60 60 60 61 61 62 63 63 64 65 67 68 69 69 70 70 70 70 69 68 67 67 66 65 65 65 65 66 66 65 64 64 65 63 63 63 63 62 62 62 62 62 62 62 62 62 62 62 62 64 65 67 69 69 64 55 47 42 42 42 41 41 41 40 39 39 38 39 39 39 39 39 38 38 38 37 37
75 74 71 68 64 61 60 60 60 61 61 61 62 63 64 65 66 67 68 69 70 71 71 72 71 71 70 69 68 68 67 66 66 66 66 66 65 64 63 64 64 63 63 64 63 63 63 63 63 62 62 62 62 61 61 61 62 63 65 66 68 67 62 53 45 42 42 42 41 41 41 40 39 38 38 38 38 37 38 38 38 38 37 37 37
71 68 65 62 60 59 59 60 60 61 61 62 63 64 66 66 67 69 70 71 72 72 73 73 72 71 70 70 69 68 67 66 65 66 65 64 63 63 63 64 64 64 65 65 64 64 64 63 63 63 62 62 61 61 61 61 62 63 64 65 67 65 59 50 44 42 42 42 41 41 41 40 38 37 37 37 37 37 37 37 37 37 37 36 36
65 63 61 60 59 59 60 60 61 61 62 64 65 66 67 67 68 70 71 72 73 73 73 72 72 71 70 69 68 67 66 65 65 65 64 63 64 64 65 65 65 66 66 65 64 64 64 64 63 63 62 61 61 60 60 61 62 64 64 65 65 62 56 48 43 41 42 42 41 41 40 39 38 37 36 36 36 36 36 36 36 36 36 35 35
61 60 60 60 60 60 60 61 62 63 64 65 66 67 68 69 69 71 72 73 73 73 73 72 70 70 69 68 68 67 66 65 65 64 64 65 65 66 66 67 67 67 66 65 64 65 65 65 64 64 63 61 60 60 60 61 63 64 64 64 63 59 52 46 42 41 42 41 41 41 40 39 38 37 36 35 35 35 36 36 36 36 36 35 34
59 59 60 60 61 61 62 63 63 64 65 66 67 68 69 70 71 72 72 73 73 73 72 71 70 69 69 68 68 67 66 65 65 66 66 66 66 67 68 68 67 66 66 65 65 66 66 66 65 64 63 61 60 60 60 61 63 64 63 63 61 56 49 44 41 41 41 41 40 40 40 39 38 37 35 35 34 34 34 35 35 35 35 34 34
59 60 60 61 62 62 63 64 65 66 66 67 68 69 70 71 72 72 73 73 73 72 71 71 70 70 69 69 68 67 67 67 67 66 66 67 68 69 69 68 67 67 67 66 67 67 68 67 66 65 63 61 60 60 61 62 63 63 63 61 58 52 46 42 40 40 40 40 40 40 39 38 37 37 35 34 34 33 34 34 34 34 35 34 33
60 61 61 62 63 63 64 65 66 67 67 68 69 70 71 72 72 73 73 72 72 71 71 71 71 70 70 70 69 68 67 67 67 67 67 68 69 69 69 69 68 68 68 69 69 69 69 68 67 65 63 62 61 60 61 62 63 62 61 58 54 49 43 40 39 39 39 39 39 39 38 37 37 36 35 34 33 33 33 33 33 34 34 34 33
61 61 62 62 63 64 65 66 67 68 69 70 71 71 72 72 72 72 72 72 71 71 71 72 72 71 71 71 70 69 68 67 67 68 68 69 69 69 70 70 70 70 70 71 71 71 70 68 67 65 63 62 61 61 62 62 62 60 58 55 51 46 41 39 38 38 38 38 38 38 37 36 36 36 35 35 34 32 32 32 32 33 33 33 33
61 61 62 62 63 65 66 67 68 69 70 71 72 72 73 73 72 72 72 72 72 72 72 72 73 72 72 71 70 69 69 68 69 69 69 70 70 71 71 72 72 72 72 72 72 71 70 68 67 66 64 63 62 62 62 61 60 57 55 51 47 43 39 37 37 37 37 37 37 37 36 35 35 35 35 35 34 33 32 32 32 32 32 32 32
61 62 63 63 64 66 67 68 69 71 72 72 73 73 73 73 73 72 72 72 72 72 73 73 73 72 71 71 71 71 71 71 71 71 71 71 72 72 73 73 73 73 73 73 73 72 71 69 68 68 67 65 64 62 61 59 57 54 51 48 45 40 37 36 36 36 36 36 36 36 35 35 34 34 34 34 34 33 32 32 31 32 32 32 31
62 63 64 65 66 67 68 69 71 72 73 73 74 73 73 73 72 72 72 72 73 73 73 73 72 72 72 72 72 73 74 74 74 74 75 75 76 77 77 77 77 77 76 76 76 75 74 72 71 70 68 66 63 61 59 56 53 50 48 46 42 38 36 35 35 35 34 34 34 34 34 34 33 33 33 33 33 33 33 32 31 31 32 32 31
64 65 65 66 68 69 70 71 72 73 74 74 73 73 72 72 72 72 73 73 74 74 74 73 73 73 73 74 75 76 77 78 78 79 79 80 80 81 81 81 81 81 81 80 79 78 77 75 73 71 68 65 62 59 56 53 49 47 45 43 40 36 34 34 34 33 33 33 33 33 33 33 33 32 32 32 32 32 32 32 31 31 32 32 31
65 66 67 68 69 70 72 72 73 73 73 73 73 72 72 72 73 73 74 74 74 74 74 73 73 74 75 77 78 80 81 82 83 83 83 84 84 85 85 85 84 84 84 83 81 79 77 74 72 69 66 63 60 56 53 49 47 44 43 41 37 34 33 32 32 32 32 32 32 32 32 32 32 31 31 31 31 31 32 32 31 31 32 32 32
67 68 69 70 71 72 73 73 73 73 72 72 71 72 72 73 74 74 74 74 74 73 73 74 75 76 78 80 81 83 84 85 86 86 86 85 84 84 83 83 82 81 80 78 76 74 72 70 68 65 62 60 57 54 50 47 44 42 41 38 34 32 31 31 30 30 31 31 31 31 31 31 31 30 30 30 30 31 31 31 31 31 31 32 32
68 69 70 71 72 72 72 72 72 71 71 71 71 72 73 74 74 74 73 73 73 73 75 76 77 79 80 82 83 84 84 84 84 83 83 82 80 79 78 78 77 77 75 74 72 69 67 64 62 59 57 56 54 50 47 43 41 40 38 35 32 30 30 29 29 29 30 30 30 30 30 30 30 30 29 29 29 30 30 31 30 30 31 31 31
69 70 71 71 72 71 71 70 70 70 70 71 72 73 73 73 72 72 72 72 73 75 76 77 79 80 81 81 81 80 79 79 79 79 78 78 77 75 73 72 71 71 70 69 67 65 63 60 56 54 52 52 50 46 43 40 39 37 35 32 30 28 28 27 28 28 29 29 29 28 28 28 29 29 28 28 28 29 29 30 30 30 30 31 31
70 70 71 70 70 70 69 69 70 71 72 72 73 72 71 71 70 70 71 73 74 76 77 78 78 78 77 76 76 76 75 75 74 73 72 71 69 68 65 63 62 61 60 59 59 58 57 55 52 49 47 47 45 41 38 37 36 34 32 30 28 27 26 26 27 27 27 27 27 27 27 27 27 27 27 27 27 28 29 29 29 29 29 30 30
70 70 70 69 69 69 69 70 71 72 72 71 70 70 69 69 69 70 72 73 75 75 75 74 73 72 72 72 72 71 69 67 66 65 64 63 62 61 59 56 54 53 51 51 50 50 49 48 46 44 43 42 39 36 34 34 33 31 29 27 26 25 25 25 26 26 26 26 26 26 26 27 27 27 26 27 27 27 28 28 29 29 29 29 30
69 68 68 68 69 69 70 71 71 70 69 68 67 67 67 68 70 71 72 73 72 71 69 68 68 68 67 66 63 61 60 59 59 59 58 56 55 53 50 48 46 45 44 43 43 42 41 40 40 39 39 37 34 31 31 30 29 28 26 25 24 24 24 24 25 25 25 25 25 25 26 26 26 26 26 26 27 27 27 28 28 28 28 29 29
67 68 68 68 69 69 69 69 68 67 66 65 65 66 68 69 70 70 69 67 65 64 63 64 63 61 58 56 54 53 53 52 52 51 49 47 44 42 40 38 37 37 37 37 36 34 33 33 34 34 33 31 29 28 27 27 26 25 24 23 23 23 23 24 24 24 23 23 24 24 25 25 26 26 26 26 26 27 27 27 28 27 27 28 28
67 67 68 68 67 67 66 65 64 63 63 64 66 67 68 68 67 65 62 59 59 59 59 58 54 51 50 48 47 46 45 44 43 42 40 37 34 31 30 29 29 29 29 28 27 27 27 28 28 28 27 26 25 24 24 23 23 22 22 22 22 22 22 23 23 22 22 22 23 24 24 25 25 25 25 26 26 26 26 27 27 27 27 27 27
Wind_Direction
295 296 296 297 297 297 297 298 300 301 303 305 305 306 306 305 305 305 304 304 304 303 303 302 301 300 299 299 298 298 297 296 296 296 295 295 295 295 295 295 294 294 294 294 293 293 293 292 292 291 290 290 289 289 288 288 288 287 287 287 286 286 285 285 284 282 280 279 278 278 277 276 276 275 273 272 270 269 267 267 267 266 266 265 265
296 296 296 296 296 296 297 298 300 303 305 306 307 307 307 306 306 305 305 304 304 303 302 302 301 300 299 299 298 297 297 297 297 297 296 296 296 296 295 295 295 295 295 295 294 294 294 293 293 292 291 291 290 290 289 289 289 289 288 288 288 288 287 287 286 285 282 281 279 279 278 278 277 276 275 274 273 271 269 267 267 266 265 265 264
296 296 296 296 295 296 297 299 302 305 306 307 308 308 307 307 306 305 305 304 303 302 302 301 300 300 299 299 299 298 298 298 297 297 296 296 296 296 296 296 297 297 297 296 296 296 295 295 294 294 293 293 292 291 291 291 290 290 290 290 289 289 289 288 288 287 285 283 282 281 279 278 278 277 276 275 274 273 271 269 268 266 266 265 264
295 295 295 295 295 296 298 301 304 306 308 308 308 308 307 306 306 305 304 303 302 301 301 300 300 300 300 299 299 299 298 298 297 297 297 297 298 298 298 298 298 298 298 298 298 297 297 296 296 295 294 294 293 293 293 292 292 291 291 290 290 290 289 289 289 288 287 286 284 283 282 281 280 279 278 277 275 274 273 272 270 268 266 265 264
294 294 294 294 294 297 300 303 305 307 308 308 308 307 306 305 305 304 303 302 301 301 300 300 300 300 300 299 299 298 298 298 298 298 298 299 299 300 300 300 300 300 300 299 299 298 298 297 297 296 296 295 295 294 294 294 293 293 292 291 291 290 290 290 290 289 289 288 287 286 285 284 284 282 281 280 278 277 276 274 273 271 268 266 265
293 292 293 293 295 299 302 304 305 307 307 308 307 306 305 304 303 302 302 301 300 300 300 300 300 300 299 299 299 299 298 299 299 299 300 301 301 301 301 301 301 301 301 300 300 299 299 298 298 297 297 297 296 296 295 294 294 293 293 292 292 291 291 291 290 290 290 290 289 288 287 286 286 285 284 283 282 280 279 277 276 274 273 270 267
291 291 292 294 297 300 302 304 305 306 307 306 305 304 304 303 302 301 301 300 300 299 300 300 300 299 299 299 299 299 299 300 300 301 301 302 302 302 302 302 302 302 301 301 300 300 300 299 299 299 298 298 297 297 296 295 295 294 294 293 293 292 292 291 291 291 290 290 290 289 288 288 287 286 285 284 283 283 281 279 277 276 276 274 272
290 291 293 295 298 301 302 303 305 306 306 305 303 303 302 301 301 300 300 299 299 299 299 299 299 299 299 299 299 300 300 301 301 302 302 303 303 303 303 303 302 302 302 301 301 301 301 301 300 300 299 299 298 297 297 296 295 295 294 294 294 293 293 292 292 292 291 291 291 290 290 289 288 287 286 285 284 283 282 281 280 278 277 276 275
289 291 294 296 299 301 302 303 304 305 304 303 302 302 301 300 300 299 299 299 299 299 299 299 299 299 299 300 300 301 301 301 302 302 303 303 303 304 303 303 303 302 303 303 302 302 302 302 301 301 300 299 298 298 297 296 296 295 295 295 294 294 294 294 294 293 293 293 293 293 292 291 290 289 288 287 286 284 283 282 281 280 278 276 275
290 292 295 297 299 300 302 303 304 303 302 301 300 300 299 299 299 299 298 298 298 298 298 298 299 299 300 301 301 301 301 301 302 302 303 303 304 304 303 303 304 304 304 304 304 303 303 303 302 301 300 299 299 298 298 297 297 297 296 296 296 296 296 296 296 296 296 296 296 295 295 294 293 291 290 289 287 286 285 284 282 281 279 277 276
292 294 296 297 299 300 302 303 302 302 300 300 299 299 298 298 298 298 298 298 298 298 298 299 299 300 301 301 301 301 301 301 302 302 303 304 304 304 304 305 305 305 305 305 305 304 304 303 302 301 301 300 299 299 298 298 298 298 298 298 298 298 298 298 298 298 298 298 298 298 297 296 294 293 292 290 288 287 286 285 284 282 281 279 277
293 294 296 298 299 301 302 301 301 300 299 298 298 298 298 298 298 297 297 297 297 298 299 300 300 301 301 301 300 300 301 301 302 303 304 304 304 304 306 306 306 306 306 306 305 304 303 303 302 302 301 301 301 300 300 300 300 301 301 301 301 302 302 302 301 300 299 299 299 299 298 297 296 295 293 291 289 287 286 285 284 283 282 281 280
293 295 297 298 300 301 301 300 299 298 297 297 297 297 297 297 297 297 297 297 298 298 299 300 300 300 300 300 300 300 301 301 303 304 304 304 304 306 306 307 307 307 307 306 305 304 303 303 303 303 303 303 302 302 302 302 302 303 303 304 304 304 304 304 304 303 302 301 301 300 300 299 297 296 294 293 291 289 287 285 285 284 283 282 281
294 296 298 299 300 300 299 298 297 297 297 297 297 297 297 297 296 296 297 297 298 299 300 300 300 299 299 299 300 300 301 302 304 304 304 304 305 306 307 307 308 307 307 306 305 304 304 305 305 305 305 305 304 304 304 304 304 305 305 305 305 305 305 305 305 304 304 303 303 302 301 300 299 298 296 294 293 291 288 287 286 285 284 283 282
295 297 298 299 299 298 297 296 296 296 297 297 297 296 296 296 296 296 297 298 299 299 299 299 298 298 298 299 300 300 301 303 304 304 304 304 306 306 307 307 307 307 306 305 305 306 306 307 307 307 307 307 306 306 306 306 306 307 306 306 306 306 306 306 306 305 305 304 303 302 301 300 299 297 296 294 292 290 288 287 286 285 284 283 283
296 297 298 297 297 296 296 296 296 296 296 296 295 295 295 295 296 296 297 298 298 298 298 297 297 298 298 299 300 301 302 303 303 303 304 305 305 306 306 306 306 306 306 306 306 307 308 308 308 309 309 309 309 309 309 309 308 308 307 307 307 307 307 307 307 306 306 305 304 302 301 300 299 298 297 295 293 291 289 287 286 284 283 283 282
297 297 296 296 295 295 295 296 296 295 295 294 294 295 295 295 296 297 297 298 297 297 297 297 297 298 299 300 301 301 302 302 303 303 304 304 305 305 305 305 305 306 306 306 307 308 308 309 309 310 311 311 311 312 312 311 310 310 309 309 309 309 309 309 308 308 307 306 305 304 303 302 301 299 298 297 296 294 292 290 288 286 285 283 281
296 295 295 294 295 295 295 295 294 294 293 294 294 294 295 295 296 297 297 297 296 296 296 296 297 298 299 300 301 301 302 302 302 303 304 304 304 304 304 305 305 305 305 306 307 308 308 309 310 312 313 313 314 314 314 314 313 313 312 312 312 312 312 311 310 309 308 307 306 305 304 303 301 300 299 297 296 294 293 292 290 288 287 285 282
294 294 294 294 294 294 294 293 293 293 293 293 294 294 295 296 296 296 296 295 295 296 296 297 298 299 299 300 300 301 302 302 302 303 303 303 303 303 304 304 304 304 305 306 307 308 309 310 311 313 314 315 316 316 316 316 316 315 315 315 314 314 314 313 313 313 311 309 308 307 306 304 303 301 299 297 296 294 293 292 291 289 287 286 284
293 293 293 293 293 293 292 292 292 292 293 293 294 295 296 296 296 295 295 295 295 296 296 297 298 298 299 300 301 301 302 302 302 302 302 302 302 303 303 304 304 304 305 306 307 308 309 310 312 313 314 315 317 318 318 317 317 317 317 316 317 317 317 318 318 316 314 312 310 309 308 306 304 302 300 298 297 295 294 293 291 290 288 286 284
292 292 292 292 292 292 291 291 292 292 293 294 295 295 295 295 295 294 294 294 295 296 297 297 298 298 299 300 301 301 301 301 301 301 302 302 302 303 303 303 304 304 305 306 308 309 310 311 312 313 314 315 317 318 318 317 317 318 317 318 319 321 321 322 321 318 315 313 312 311 309 307 305 303 302 300 299 297 295 294 293 292 290 288 284
291 291 291 291 291 291 291 291 292 293 294 294 295 295 295 294 294 293 294 294 295 296 297 297 298 299 300 300 300 301 301 301 301 301 301 302 302 302 303 303 303 304 305 307 308 309 310 311 312 312 313 315 316 317 317 317 317 318 318 319 321 323 324 324 322 318 315 314 313 312 310 308 306 306 305 303 302 300 299 297 296 294 293 290 287
290 291 290 290 290 290 291 291 292 293 294 295 295 294 294 293 293 293 294 294 295 296 297 297 298 299 299 299 300 300 300 300 301 301 301 302 302 302 302 302 303 303 304 305 306 307 308 310 311 311 311 313 315 316 316 316 317 317 318 320 322 323 325 325 322 318 315 314 313 311 310 309 308 307 306 304 303 301 301 300 299 297 295 293 291
289 289 289 289 290 290 291 292 293 294 295 295 294 293 292 292 292 293 293 294 295 296 297 297 298 298 299 299 299 299 300 300 301 301 301 301 301 301 301 301 301 302 303 304 304 305 307 309 309 309 310 312 313 314 315 316 316 317 318 320 322 324 325 324 320 316 314 313 311 310 310 309 309 307 305 304 302 302 302 301 300 299 297 295 294
288 288 289 289 290 291 292 293 294 295 294 293 292 291 290 291 292 293 294 295 295 296 296 297 297 298 298 299 299 299 299 300 300 301 300 300 299 299 299 299 300 300 301 302 303 304 306 307 307 307 308 311 312 313 314 315 316 317 318 320 322 324 325 323 318 314 312 310 309 310 310 309 309 307 306 305 305 305 305 304 302 301 300 298 297
288 289 289 289 290 292 293 294 294 294 292 291 290 290 290 291 292 293 294 295 295 295 296 296 297 297 298 298 298 298 299 299 299 299 298 298 298 298 298 298 298 299 300 300 301 303 305 306 305 306 308 310 311 312 313 314 315 316 318 320 321 323 324 322 317 313 310 308 308 309 309 309 308 307 308 309 309 309 308 306 305 304 303 302 300
288 289 289 290 292 293 294 294 293 291 290 289 289 290 290 291 292 293 294 294 294 295 295 296 296 297 297 297 297 297 298 298 297 296 295 296 296 297 297 297 297 297 298 299 300 302 304 304 304 305 308 309 310 310 312 312 313 315 317 319 321 323 323 320 315 310 308 307 308 309 309 309 308 309 310 311 311 310 309 308 307 306 305 304 301
288 289 291 292 293 294 293 292 290 289 288 289 290 290 291 291 292 293 293 294 294 295 295 296 296 296 296 296 296 296 296 296 295 293 293 294 295 296 297 296 296 296 296 297 298 301 302 302 302 304 306 307 308 309 310 311 312 314 317 319 321 322 322 318 312 308 307 307 308 308 309 309 309 310 311 312 311 310 309 309 309 308 307 305 302
290 291 292 293 293 292 291 289 288 288 288 289 289 290 291 292 292 293 293 293 294 294 295 295 295 295 295 295 295 295 295 294 293 292 292 293 294 295 296 295 294 294 295 295 297 300 300 300 301 303 304 305 306 307 308 310 311 314 316 318 320 321 320 316 309 306 306 307 307 308 309 309 309 310 311 310 309 309 308 308 308 307 306 305 302
291 292 292 292 291 290 288 287 287 288 289 290 290 291 292 292 292 293 293 293 294 294 294 294 294 294 294 295 294 294 293 293 292 292 291 292 293 294 295 294 293 293 293 294 296 298 298 298 300 302 303 303 305 306 307 309 311 313 315 317 319 320 318 313 306 304 305 306 307 308 308 308 308 309 309 308 307 307 307 307 307 307 306 305 303
291 291 290 289 288 287 287 287 288 289 290 290 291 291 292 292 292 293 293 293 293 294 294 294 294 294 294 294 293 293 292 292 291 290 290 291 292 293 292 292 293 292 292 293 295 296 296 297 299 301 301 302 303 305 306 308 310 312 315 317 318 318 316 309 304 302 304 305 306 307 308 307 307 307 308 307 306 306 306 306 307 306 306 305 304
290 289 288 287 287 287 287 288 288 289 289 290 290 290 291 291 292 293 293 293 293 293 294 294 294 294 294 294 293 293 292 291 290 290 290 290 291 291 291 291 291 291 291 293 295 295 295 296 298 299 300 301 302 304 305 307 309 312 314 315 317 316 313 306 301 301 303 304 306 307 307 306 306 307 306 305 305 305 305 306 307 307 307 307 307
288 287 287 287 287 287 288 288 288 288 288 289 289 290 290 291 291 292 292 292 293 293 294 294 294 294 294 293 293 292 291 291 290 290 290 290 290 290 290 290 290 290 292 293 294 294 294 296 297 297 298 299 301 303 305 307 309 311 313 314 315 314 309 303 300 300 302 304 305 306 306 305 305 306 306 305 305 306 306 306 307 307 308 309 309
286 286 286 287 287 287 287 287 288 288 288 289 289 290 290 291 291 291 291 292 292 293 293 293 294 294 293 293 292 292 291 290 290 290 290 289 289 289 289 289 290 291 292 293 293 293 294 295 296 296 297 298 300 302 304 306 308 310 311 313 313 311 306 300 298 299 301 303 305 305 305 305 305 306 306 305 305 306 306 306 307 308 308 309 310
285 286 286 287 287 287 287 287 288 288 289 289 290 290 290 290 291 291 291 291 292 292 293 293 293 293 292 292 292 291 290 289 289 289 288 288 288 288 289 290 291 291 292 292 292 292 293 294 294 294 295 297 299 301 304 306 308 309 310 311 311 308 302 297 296 297 300 303 304 305 304 304 305 305 306 306 305 305 305 307 308 308 308 308 309
285 286 286 286 286 286 287 287 288 288 289 289 290 290 290 290 291 291 291 291 292 292 292 292 292 292 292 291 290 289 289 289 288 288 288 288 288 288 289 290 290 290 291 291 291 291 291 292 292 293 294 296 298 301 303 305 306 307 308 309 308 304 299 295 294 296 299 302 304 304 303 303 304 305 306 306 305 305 306 307 308 309 308 308 309
285 285 285 285 286 286 287 288 288 288 289 289 290 290 290 291 291 291 291 292 292 292 292 292 292 291 291 290 290 289 289 288 288 287 287 287 287 287 287 288 288 289 289 289 289 289 290 290 291 292 294 296 298 300 302 303 304 305 306 306 304 301 296 292 292 295 298 301 302 302 302 303 304 305 306 306 306 306 306 307 309 310 309 308 308
285 285 285 285 286 286 287 287 288 288 289 289 290 290 290 291 291 291 291 292 292 292 292 291 291 290 290 289 289 289 288 287 286 286 285 285 285 286 286 286 286 287 287 287 287 287 287 288 290 291 293 295 297 298 300 301 302 303 303 302 301 297 292 290 291 294 297 299 301 301 301 303 305 305 305 306 306 306 306 307 308 310 309 308 308
285 285 285 285 285 286 286 287 288 289 289 290 290 290 291 291 291 291 291 291 291 291 291 291 290 290 289 289 288 287 287 286 285 285 285 284 284 284 284 284 284 284 284 284 284 285 287 288 290 291 292 294 295 296 298 299 300 300 300 299 297 294 289 288 290 293 296 298 300 300 301 304 305 305 305 306 306 306 306 306 308 310 310 309 308
284 284 284 285 285 286 287 288 288 289 290 290 291 291 291 291 291 291 291 291 291 291 291 291 290 289 288 288 287 286 286 286 285 285 284 284 284 284 284 284 284 284 284 284 285 286 287 288 289 290 291 291 292 294 295 296 297 297 296 295 293 290 287 286 289 292 295 298 299 299 301 304 305 305 304 305 306 306 306 306 307 309 310 310 309
284 284 284 285 286 287 288 288 289 290 290 291 291 291 291 291 291 291 291 292 292 291 290 290 289 288 287 286 286 286 286 285 285 285 284 284 284 284 284 284 285 285 284 284 285 286 286 287 287 288 288 289 289 291 292 293 293 293 293 292 290 286 284 285 288 291 294 297 298 299 301 303 304 304 303 304 305 306 305 305 306 308 310 310 311
284 285 285 286 287 288 289 289 290 291 291 291 291 291 291 291 292 292 292 292 291 290 289 288 287 286 286 286 286 286 286 286 285 285 285 284 284 284 284 283 283 283 283 283 283 284 284 284 284 284 285 285 286 287 288 289 289 289 289 288 286 283 281 283 287 290 294 296 297 299 302 303 303 303 303 303 305 305 305 305 306 307 309 310 311
285 286 287 287 288 289 290 291 291 291 291 291 291 291 292 292 292 292 292 291 290 289 289 288 287 287 287 287 287 287 287 287 286 285 285 284 284 283 283 283 282 282 281 281 281 281 281 280 280 281 281 282 282 283 284 285 286 286 286 285 282 279 278 282 286 290 294 296 297 300 302 303 303 303 303 303 304 305 305 305 305 305 307 309 311
286 287 288 289 290 290 291 291 291 291 291 291 291 292 292 292 292 291 291 290 290 289 289 289 288 288 288 288 288 288 288 287 287 286 286 285 284 284 283 282 282 281 280 279 279 278 277 277 277 277 277 277 277 278 280 281 282 282 282 280 277 275 276 280 285 290 293 296 298 301 302 303 303 303 303 303 304 305 306 305 305 304 305 307 309
287 288 289 290 291 291 292 292 292 291 291 291 291 291 291 291 291 291 291 290 290 290 290 290 290 290 290 290 290 290 289 289 289 288 288 287 286 285 283 282 281 280 279 278 276 275 275 274 273 273 272 272 273 274 276 277 278 278 277 275 272 271 275 280 285 290 294 296 299 301 302 302 302 303 303 303 304 305 306 306 306 305 304 304 307
288 289 290 291 292 292 291 291 291 291 291 291 291 291 291 292 292 292 291 291 291 291 292 292 292 292 292 292 292 292 292 291 290 290 289 287 286 284 283 281 279 278 277 275 274 273 272 270 269 268 268 268 268 270 271 272 273 273 272 269 267 269 274 280 285 291 294 297 299 301 301 301 301 302 302 303 303 304 305 306 307 306 304 303 304
290 291 291 291 291 291 290 290 290 290 291 291 292 292 292 292 292 292 293 293 293 294 294 295 295 295 295 295 295 294 294 293 292 290 289 287 286 284 282 280 278 276 275 273 272 270 268 266 264 263 262 263 264 265 266 267 268 268 266 264 264 269 275 281 286 291 295 297 299 301 301 301 301 301 302 303 303 303 305 306 307 307 306 304 303
291 291 291 291 290 290 290 290 290 291 291 292 292 292 292 293 293 294 295 295 296 296 297 297 297 297 297 297 297 296 295 294 293 291 290 288 286 284 282 279 277 275 273 272 270 268 264 262 259 257 256 257 258 259 260 261 262 262 260 260 263 269 276 282 288 292 295 298 300 301 302 302 302 302 302 303 303 304 305 306 307 308 307 306 304
291 291 290 290 290 290 290 290 291 291 292 292 292 293 293 294 295 296 297 297 298 298 298 298 299 299 299 299 299 299 298 297 296 294 292 290 287 284 281 278 275 273 271 269 268 265 261 257 253 251 251 252 252 252 253 255 255 255 255 257 263 270 277 284 289 292 296 299 301 302 303 304 304 303 303 302 303 304 305 306 307 307 308 307 305
290 289 289 289 289 290 290 290 291 291 292 292 293 294 295 296 297 298 298 299 299 299 299 300 301 302 302 302 302 302 302 301 300 299 296 293 289 285 281 277 273 271 269 267 265 260 254 249 247 247 247 246 244 245 247 248 248 248 252 257 264 271 278 284 288 291 295 299 301 302 304 305 306 305 304 303 304 305 306 307 307 307 307 307 306
289 289 289 289 289 290 290 290 291 292 292 293 294 295 296 297 298 298 298 299 299 300 302 303 303 304 305 306 306 306 306 307 306 305 302 297 292 287 283 278 273 270 267 262 256 250 246 243 242 241 239 237 236 238 239 239 240 244 251 259 266 273 279 284 287 291 295 298 301 302 304 306 308 308 307 305 305 305 306 307 308 308 308 307 307
Height
5742 5739 5737 5735 5732 5730 5728 5725 5723 5721 5718 5715 5711 5708 5704 5701 5697 5694 5690 5687 5683 5679 5675 5672 5668 5664 5660 5657 5654 5650 5646 5643 5639 5636 5632 5629 5626 5623 5620 5616 5613 5609 5606 5603 5600 5597 5594 5590 5587 5584 5580 5577 5573 5569 5566 5563 5560 5557 5553 5551 5548 5543 5541 5539 5538 5544 5549 5547 5541 5537 5534 5534 5534 5532 5533 5535 5535 5535 5536 5535 5532 5531 5531 5532 5533
5733 5731 5729 5727 5724 5722 5720 5717 5715 5712 5709 5705 5702 5698 5695 5691 5688 5685 5681 5677 5674 5670 5666 5662 5659 5655 5651 5648 5645 5641 5637 5634 5630 5626 5623 5620 5617 5613 5610 5607 5603 5600 5597 5594 5590 5587 5584 5580 5576 5572 5569 5565 5561 5557 5554 5551 5547 5545 5541 5537 5535 5531 5527 5525 5523 5524 5530 5533 5530 5524 5520 5518 5518 5516 5515 5518 5518 5518 5521 5522 5519 5518 5518 5518 5519
5725 5723 5721 5719 5716 5714 5711 5709 5705 5702 5699 5696 5692 5689 5686 5682 5679 5676 5672 5668 5664 5660 5656 5653 5649 5646 5642 5639 5635 5631 5628 5624 5621 5617 5614 5611 5608 5605 5601 5598 5594 5591 5587 5583 5580 5576 5572 5568 5564 5560 5556 5552 5548 5544 5541 5538 5535 5532 5529 5525 5522 5519 5514 5510 5508 5507 5510 5515 5516 5511 5506 5504 5504 5502 5499 5500 5501 5499 5501 5505 5505 5504 5504 5503 5504
5717 5715 5713 5710 5708 5705 5702 5699 5696 5693 5689 5686 5683 5680 5676 5673 5670 5667 5663 5659 5655 5651 5647 5643 5640 5636 5633 5629 5626 5622 5619 5615 5612 5608 5605 5602 5599 5595 5592 5588 5584 5581 5577 5573 5568 5564 5560 5555 5551 5547 5544 5540 5536 5532 5529 5526 5523 5520 5517 5514 5510 5507 5504 5499 5496 5494 5494 5498 5500 5498 5492 5490 5491 5489 5485 5485 5485 5483 5482 5485 5487 5489 5490 5489 5488
5709 5707 5705 5702 5700 5697 5693 5690 5687 5683 5680 5677 5674 5671 5667 5664 5661 5658 5654 5650 5645 5641 5638 5634 5631 5627 5624 5620 5617 5613 5610 5606 5603 5600 5596 5593 5590 5586 5582 5578 5574 5570 5566 5561 5557 5553 5548 5544 5539 5535 5532 5528 5524 5521 5518 5514 5512 5509 5506 5503 5500 5497 5494 5490 5486 5484 5482 5483 5485 5485 5481 5477 5477 5477 5473 5469 5470 5469 5468 5469 5470 5470 5472 5475 5474
5701 5699 5697 5694 5691 5688 5684 5681 5678 5675 5672 5669 5665 5662 5658 5655 5652 5648 5644 5640 5636 5632 5628 5625 5622 5618 5615 5611 5608 5604 5600 5597 5594 5590 5587 5584 5580 5576 5572 5568 5563 5559 5554 5550 5546 5541 5537 5533 5529 5525 5521 5518 5514 5511 5508 5504 5502 5499 5496 5493 5490 5487 5484 5481 5478 5475 5473 5472 5472 5473 5472 5468 5466 5466 5463 5457 5455 5455 5454 5454 5456 5455 5455 5458 5461
5693 5691 5688 5686 5683 5679 5676 5672 5669 5667 5664 5660 5656 5653 5650 5646 5642 5638 5634 5630 5626 5622 5619 5616 5613 5609 5606 5602 5598 5595 5592 5588 5584 5581 5577 5574 5570 5566 5562 5558 5553 5549 5544 5540 5535 5531 5527 5523 5519 5515 5511 5508 5504 5501 5498 5495 5493 5490 5487 5484 5481 5479 5476 5473 5470 5467 5465 5464 5462 5461 5461 5459 5455 5454 5452 5447 5443 5441 5438 5438 5442 5444 5442 5442 5445
5685 5682 5680 5677 5674 5670 5667 5664 5662 5659 5656 5651 5647 5644 5640 5637 5632 5628 5624 5621 5617 5613 5610 5607 5604 5600 5597 5593 5589 5586 5583 5579 5575 5571 5567 5564 5560 5557 5553 5549 5544 5540 5535 5531 5526 5521 5517 5513 5510 5506 5502 5499 5495 5492 5489 5487 5484 5482 5478 5475 5473 5470 5467 5464 5461 5459 5456 5454 5453 5451 5450 5450 5445 5441 5439 5437 5433 5429 5426 5424 5427 5430 5430 5431 5432
5676 5674 5672 5669 5666 5662 5659 5656 5653 5650 5646 5642 5638 5635 5631 5627 5623 5619 5615 5612 5608 5604 5601 5598 5595 5591 5587 5584 5580 5577 5573 5569 5565 5561 5558 5554 5551 5548 5544 5540 5536 5531 5527 5522 5517 5513 5508 5505 5501 5497 5494 5491 5487 5484 5481 5478 5476 5474 5470 5467 5464 5461 5459 5456 5452 5449 5447 5445 5443 5441 5440 5439 5435 5430 5428 5426 5421 5417 5415 5414 5414 5415 5415 5418 5421
5668 5666 5664 5661 5657 5654 5651 5648 5644 5641 5637 5633 5629 5626 5622 5618 5614 5610 5607 5603 5599 5596 5592 5589 5586 5582 5578 5575 5571 5567 5563 5559 5556 5552 5548 5545 5543 5539 5536 5532 5527 5523 5519 5514 5509 5505 5501 5497 5493 5490 5486 5483 5480 5476 5473 5470 5468 5465 5462 5459 5456 5453 5450 5447 5444 5440 5437 5436 5434 5431 5429 5429 5424 5419 5417 5416 5410 5406 5404 5403 5402 5402 5402 5405 5409
5660 5657 5655 5652 5649 5645 5642 5638 5635 5631 5627 5623 5620 5616 5612 5609 5605 5601 5598 5594 5590 5587 5584 5580 5577 5573 5570 5566 5562 5557 5553 5550 5546 5543 5540 5537 5534 5531 5527 5523 5519 5514 5510 5506 5502 5498 5494 5490 5486 5483 5479 5476 5473 5469 5466 5463 5460 5458 5455 5451 5448 5444 5441 5438 5435 5432 5428 5427 5426 5422 5418 5417 5415 5409 5405 5404 5401 5397 5394 5392 5390 5390 5390 5392 5397
5651 5648 5646 5643 5640 5637 5633 5629 5625 5621 5618 5614 5611 5607 5603 5600 5597 5593 5589 5586 5582 5578 5575 5571 5568 5564 5561 5557 5553 5548 5544 5540 5538 5534 5531 5528 5525 5523 5519 5515 5511 5506 5502 5498 5494 5491 5488 5484 5480 5476 5472 5469 5466 5462 5459 5456 5453 5451 5448 5444 5440 5436 5432 5428 5425 5422 5419 5417 5417 5414 5408 5404 5404 5400 5393 5390 5391 5388 5385 5382 5379 5379 5380 5381 5385
5642 5639 5637 5634 5631 5627 5623 5619 5615 5612 5609 5605 5602 5598 5595 5592 5588 5584 5581 5577 5573 5570 5566 5563 5559 5556 5552 5548 5544 5540 5535 5532 5530 5526 5523 5519 5516 5514 5511 5507 5503 5499 5495 5491 5488 5484 5481 5478 5474 5470 5466 5462 5459 5456 5453 5450 5447 5444 5441 5437 5433 5429 5425 5421 5416 5412 5409 5406 5405 5404 5399 5393 5391 5390 5383 5377 5378 5377 5374 5373 5370 5368 5370 5371 5373
5633 5630 5627 5625 5622 5618 5614 5610 5607 5603 5599 5596 5593 5590 5586 5583 5579 5575 5572 5568 5565 5561 5558 5554 5551 5547 5543 5539 5535 5531 5527 5523 5521 5518 5514 5511 5508 5505 5502 5499 5496 5492 5488 5484 5481 5478 5475 5471 5468 5464 5459 5456 5452 5449 5446 5443 5440 5437 5433 5430 5426 5422 5418 5414 5409 5404 5400 5396 5393 5392 5389 5383 5379 5377 5373 5366 5365 5364 5363 5362 5361 5358 5358 5361 5363
5624 5621 5618 5615 5612 5608 5605 5601 5598 5594 5590 5587 5584 5581 5578 5574 5570 5566 5563 5560 5557 5553 5549 5545 5542 5538 5534 5531 5527 5523 5519 5515 5513 5510 5506 5503 5500 5497 5494 5491 5488 5485 5481 5478 5475 5471 5468 5464 5461 5457 5453 5449 5445 5441 5439 5436 5433 5430 5427 5423 5420 5416 5412 5407 5402 5398 5394 5389 5385 5381 5379 5374 5368 5366 5363 5357 5354 5353 5352 5352 5351 5347 5347 5351 5354
5616 5612 5609 5606 5602 5599 5596 5592 5589 5585 5582 5579 5576 5573 5569 5565 5561 5558 5555 5552 5549 5545 5541 5537 5533 5530 5526 5523 5519 5515 5511 5507 5505 5502 5498 5495 5492 5489 5487 5484 5481 5478 5474 5471 5468 5465 5461 5457 5454 5451 5447 5443 5439 5435 5431 5428 5426 5423 5420 5416 5413 5409 5405 5400 5395 5391 5386 5381 5376 5372 5368 5364 5358 5354 5351 5346 5342 5341 5340 5343 5341 5336 5336 5341 5344
5607 5603 5600 5596 5592 5589 5587 5584 5580 5577 5574 5571 5568 5564 5560 5557 5553 5550 5547 5543 5540 5536 5532 5528 5525 5522 5518 5514 5511 5508 5504 5499 5496 5494 5490 5487 5484 5482 5479 5477 5474 5471 5468 5465 5462 5459 5455 5451 5448 5444 5440 5436 5432 5428 5424 5421 5418 5414 5411 5409 5405 5401 5397 5392 5388 5383 5378 5372 5368 5362 5358 5354 5349 5345 5341 5336 5332 5329 5328 5330 5330 5325 5326 5330 5332
5597 5594 5590 5587 5583 5581 5578 5575 5572 5568 5565 5563 5559 5555 5552 5548 5545 5542 5538 5534 5531 5527 5524 5520 5517 5514 5510 5506 5503 5500 5496 5491 5488 5486 5483 5479 5477 5475 5472 5470 5467 5464 5461 5459 5456 5452 5448 5445 5441 5437 5434 5430 5426 5422 5418 5413 5410 5406 5403 5400 5397 5393 5389 5384 5379 5375 5370 5365 5360 5354 5350 5345 5340 5337 5334 5330 5327 5322 5319 5320 5319 5317 5318 5319 5319
5587 5584 5581 5578 5574 5572 5569 5566 5563 5560 5557 5554 5550 5547 5543 5540 5537 5533 5529 5525 5522 5519 5516 5513 5509 5506 5502 5499 5495 5492 5488 5484 5480 5478 5475 5472 5470 5468 5465 5463 5460 5457 5455 5453 5450 5446 5442 5439 5435 5431 5427 5424 5420 5416 5411 5406 5402 5398 5394 5391 5388 5385 5380 5375 5370 5365 5360 5356 5351 5346 5342 5338 5333 5330 5327 5324 5321 5317 5314 5313 5311 5309 5310 5311 5310
5577 5574 5571 5569 5565 5563 5560 5557 5554 5551 5548 5545 5541 5538 5535 5531 5528 5524 5521 5517 5514 5511 5508 5505 5502 5498 5495 5491 5488 5484 5481 5477 5473 5471 5468 5465 5463 5461 5458 5456 5453 5451 5448 5446 5443 5440 5436 5433 5429 5425 5421 5417 5414 5409 5404 5399 5395 5391 5386 5382 5379 5375 5371 5366 5361 5355 5350 5346 5342 5338 5334 5330 5326 5324 5321 5318 5315 5313 5310 5308 5306 5304 5304 5305 5304
5567 5565 5562 5559 5556 5554 5551 5548 5545 5542 5539 5536 5533 5530 5526 5522 5519 5516 5512 5509 5506 5503 5501 5497 5494 5491 5487 5484 5480 5476 5473 5470 5466 5463 5461 5458 5455 5453 5451 5449 5446 5444 5442 5440 5437 5434 5430 5426 5423 5418 5414 5411 5407 5403 5398 5393 5388 5384 5379 5375 5370 5366 5361 5357 5352 5346 5341 5337 5334 5330 5327 5324 5321 5318 5315 5313 5311 5308 5306 5304 5303 5301 5299 5299 5299
5558 5556 5553 5550 5547 5545 5542 5539 5537 5533 5531 5528 5524 5521 5517 5513 5510 5507 5504 5501 5498 5496 5493 5490 5486 5483 5480 5477 5473 5469 5466 5463 5459 5456 5453 5451 5448 5446 5444 5442 5439 5437 5435 5433 5430 5427 5424 5420 5416 5412 5408 5405 5401 5396 5392 5388 5383 5378 5373 5368 5364 5359 5354 5349 5344 5339 5334 5330 5326 5323 5320 5318 5316 5314 5311 5309 5306 5304 5302 5301 5299 5297 5296 5294 5293
5549 5547 5544 5541 5539 5536 5533 5531 5528 5525 5522 5518 5515 5511 5508 5504 5501 5499 5496 5493 5490 5488 5485 5482 5478 5476 5472 5469 5466 5463 5459 5456 5452 5449 5446 5443 5441 5438 5436 5434 5432 5430 5428 5426 5423 5420 5417 5413 5409 5405 5401 5398 5395 5390 5386 5381 5377 5372 5367 5363 5358 5353 5347 5342 5336 5332 5328 5324 5321 5318 5316 5313 5311 5309 5307 5305 5302 5300 5298 5297 5295 5293 5291 5290 5288
5540 5538 5535 5532 5530 5527 5524 5521 5519 5516 5512 5509 5505 5502 5499 5496 5493 5491 5488 5485 5482 5480 5477 5474 5471 5468 5465 5462 5459 5456 5452 5448 5445 5442 5439 5436 5434 5431 5429 5427 5425 5422 5421 5419 5416 5413 5410 5407 5403 5398 5395 5392 5388 5384 5379 5374 5370 5366 5361 5356 5351 5346 5341 5336 5331 5326 5322 5319 5317 5314 5312 5309 5307 5305 5303 5300 5298 5296 5294 5292 5290 5288 5287 5286 5284
5531 5528 5526 5523 5520 5518 5515 5512 5509 5506 5502 5499 5496 5493 5490 5488 5485 5482 5479 5476 5474 5471 5469 5466 5463 5460 5457 5454 5451 5448 5445 5441 5438 5434 5431 5429 5427 5424 5422 5420 5417 5415 5413 5411 5409 5406 5403 5400 5396 5391 5388 5385 5381 5377 5372 5368 5363 5358 5354 5350 5345 5341 5336 5331 5326 5322 5318 5315 5313 5310 5308 5305 5302 5300 5298 5295 5293 5291 5290 5288 5286 5283 5282 5281 5279
5521 5519 5516 5513 5511 5508 5505 5502 5499 5495 5492 5489 5487 5484 5482 5480 5477 5474 5471 5468 5465 5462 5460 5457 5455 5452 5449 5446 5443 5440 5437 5435 5431 5427 5424 5421 5419 5417 5415 5413 5410 5407 5405 5403 5400 5398 5396 5393 5388 5384 5381 5378 5374 5370 5366 5361 5357 5352 5348 5344 5339 5335 5330 5325 5321 5317 5314 5311 5309 5306 5304 5301 5298 5295 5293 5290 5288 5286 5284 5283 5281 5279 5277 5275 5274
5511 5509 5506 5503 5501 5498 5495 5492 5488 5485 5482 5480 5478 5476 5474 5471 5468 5465 5463 5459 5456 5453 5451 5448 5446 5444 5441 5438 5435 5432 5430 5428 5425 5421 5416 5414 5412 5409 5407 5405 5402 5400 5397 5395 5392 5391 5388 5385 5380 5377 5373 5370 5366 5362 5359 5355 5351 5347 5342 5338 5333 5329 5324 5319 5316 5313 5310 5307 5305 5302 5299 5296 5294 5291 5288 5285 5283 5280 5279 5277 5275 5273 5271 5270 5268
5502 5499 5496 5493 5491 5488 5485 5481 5479 5477 5474 5471 5469 5466 5464 5462 5459 5457 5454 5451 5447 5445 5442 5440 5438 5435 5432 5430 5427 5424 5422 5420 5417 5414 5410 5407 5404 5401 5399 5397 5395 5392 5390 5387 5385 5384 5381 5377 5373 5370 5367 5363 5360 5356 5352 5349 5345 5341 5336 5332 5327 5323 5318 5314 5310 5308 5305 5303 5300 5297 5295 5292 5289 5286 5284 5281 5278 5276 5274 5272 5270 5268 5266 5264 5262
5491 5489 5486 5484 5481 5478 5475 5472 5470 5468 5466 5463 5460 5457 5454 5452 5450 5448 5445 5442 5439 5436 5433 5431 5429 5426 5424 5421 5419 5416 5414 5412 5409 5405 5402 5400 5397 5394 5392 5389 5387 5385 5382 5379 5377 5376 5373 5369 5367 5364 5360 5357 5354 5350 5346 5342 5338 5334 5330 5326 5322 5318 5313 5309 5306 5303 5300 5298 5295 5293 5290 5288 5285 5282 5279 5277 5274 5271 5269 5267 5265 5263 5260 5258 5256
5482 5479 5477 5474 5472 5469 5467 5464 5462 5459 5457 5454 5451 5447 5445 5443 5441 5439 5436 5432 5430 5427 5424 5422 5420 5417 5415 5413 5410 5407 5405 5402 5399 5396 5394 5391 5388 5386 5383 5381 5378 5377 5374 5371 5370 5369 5365 5362 5359 5357 5353 5350 5347 5343 5340 5336 5333 5328 5324 5320 5316 5312 5308 5304 5301 5299 5296 5293 5291 5288 5286 5283 5281 5278 5275 5273 5271 5267 5265 5262 5260 5258 5255 5253 5251
5472 5470 5467 5465 5463 5461 5458 5456 5453 5450 5447 5445 5442 5439 5436 5433 5431 5429 5426 5423 5420 5418 5415 5413 5410 5408 5406 5403 5400 5397 5395 5392 5390 5387 5384 5382 5379 5377 5374 5372 5370 5368 5365 5364 5363 5360 5357 5354 5352 5349 5346 5342 5340 5336 5333 5330 5326 5322 5318 5314 5310 5306 5302 5298 5296 5294 5291 5289 5286 5284 5281 5279 5276 5274 5271 5269 5267 5264 5261 5258 5255 5253 5250 5248 5245
5462 5460 5457 5456 5454 5452 5449 5447 5444 5441 5439 5436 5433 5431 5428 5425 5423 5420 5417 5414 5411 5408 5406 5403 5401 5399 5396 5393 5391 5388 5385 5382 5380 5377 5374 5372 5370 5367 5365 5363 5361 5358 5356 5355 5354 5351 5347 5345 5344 5341 5338 5335 5332 5329 5326 5323 5319 5316 5313 5308 5304 5300 5296 5293 5290 5288 5286 5284 5281 5279 5277 5274 5272 5269 5267 5264 5262 5260 5257 5254 5251 5249 5246 5243 5240
5452 5450 5448 5446 5445 5442 5440 5438 5435 5433 5430 5427 5425 5422 5420 5417 5415 5412 5408 5405 5402 5399 5396 5394 5390 5388 5386 5383 5381 5378 5376 5372 5370 5367 5365 5362 5360 5358 5355 5354 5352 5349 5348 5347 5345 5341 5338 5337 5335 5333 5330 5327 5324 5321 5319 5316 5312 5309 5306 5303 5298 5294 5290 5287 5285 5283 5281 5279 5276 5274 5272 5269 5267 5265 5262 5259 5257 5255 5252 5250 5247 5244 5242 5239 5236
5443 5441 5439 5437 5435 5433 5431 5428 5426 5423 5421 5419 5416 5414 5411 5408 5406 5403 5400 5397 5394 5390 5388 5385 5382 5379 5376 5373 5371 5368 5366 5363 5360 5358 5355 5353 5351 5348 5346 5344 5343 5341 5339 5338 5336 5332 5330 5328 5327 5324 5321 5319 5317 5314 5311 5308 5305 5302 5299 5296 5292 5288 5284 5282 5280 5278 5276 5273 5271 5269 5267 5264 5262 5260 5258 5255 5252 5250 5247 5245 5242 5240 5237 5235 5232
5434 5432 5430 5428 5425 5423 5421 5419 5416 5414 5412 5410 5407 5405 5402 5399 5397 5394 5391 5388 5385 5382 5379 5376 5373 5370 5367 5364 5361 5358 5356 5353 5351 5348 5346 5344 5342 5339 5336 5335 5334 5332 5330 5329 5327 5324 5321 5320 5318 5315 5313 5311 5309 5306 5304 5301 5298 5295 5293 5289 5286 5282 5279 5276 5274 5272 5270 5268 5266 5264 5262 5259 5257 5255 5253 5251 5248 5245 5243 5241 5238 5235 5233 5231 5229
5426 5424 5421 5418 5416 5414 5412 5410 5407 5405 5403 5401 5398 5395 5393 5390 5387 5384 5381 5378 5376 5373 5370 5367 5364 5360 5357 5354 5352 5349 5346 5343 5341 5338 5336 5334 5331 5329 5326 5325 5324 5323 5321 5319 5317 5315 5313 5311 5309 5307 5305 5303 5300 5298 5296 5293 5291 5288 5286 5283 5280 5276 5273 5271 5269 5267 5265 5263 5261 5259 5257 5255 5252 5250 5248 5246 5243 5241 5239 5236 5234 5231 5228 5226 5224
5417 5415 5412 5409 5407 5405 5403 5401 5398 5396 5394 5391 5389 5386 5383 5380 5378 5375 5372 5368 5365 5363 5360 5357 5354 5351 5347 5344 5341 5338 5336 5333 5331 5329 5327 5324 5322 5319 5317 5316 5315 5313 5311 5309 5307 5305 5304 5302 5300 5298 5296 5294 5292 5290 5288 5286 5284 5281 5279 5276 5273 5270 5268 5266 5264 5262 5260 5258 5256 5254 5252 5250 5247 5245 5243 5241 5239 5237 5234 5232 5229 5227 5224 5222 5220
5408 5406 5404 5401 5399 5397 5394 5392 5389 5387 5384 5382 5379 5376 5374 5371 5368 5365 5362 5359 5356 5353 5350 5347 5343 5341 5338 5334 5330 5328 5326 5323 5321 5319 5317 5315 5312 5309 5307 5306 5304 5303 5302 5299 5297 5295 5295 5293 5291 5289 5287 5285 5283 5282 5280 5278 5276 5274 5272 5269 5267 5264 5262 5260 5258 5257 5255 5253 5251 5249 5247 5245 5243 5240 5238 5236 5234 5232 5230 5228 5225 5223 5221 5218 5216
5399 5397 5395 5392 5390 5388 5385 5382 5380 5377 5374 5372 5369 5366 5363 5360 5358 5355 5352 5349 5346 5343 5340 5336 5333 5330 5327 5323 5320 5317 5315 5313 5311 5309 5307 5305 5302 5300 5298 5296 5295 5293 5292 5289 5286 5285 5285 5284 5281 5279 5278 5276 5275 5273 5272 5271 5269 5267 5265 5262 5260 5258 5256 5255 5253 5251 5250 5248 5247 5244 5242 5240 5238 5235 5233 5231 5229 5227 5226 5223 5221 5219 5217 5215 5212
5390 5388 5385 5384 5381 5378 5376 5373 5370 5367 5364 5361 5358 5356 5353 5350 5347 5344 5341 5338 5335 5332 5329 5326 5322 5319 5316 5312 5309 5306 5304 5303 5301 5298 5296 5294 5292 5289 5287 5285 5283 5282 5280 5277 5275 5275 5275 5274 5272 5270 5269 5267 5266 5265 5264 5263 5262 5260 5258 5256 5254 5252 5251 5249 5248 5246 5245 5244 5242 5239 5237 5235 5233 5231 5228 5226 5224 5223 5221 5219 5217 5215 5213 5211 5209
5380 5378 5376 5374 5372 5369 5366 5364 5361 5358 5354 5351 5348 5345 5342 5339 5336 5333 5330 5327 5324 5321 5318 5315 5311 5308 5305 5302 5298 5295 5293 5292 5290 5287 5284 5282 5280 5277 5275 5273 5271 5269 5267 5265 5264 5264 5264 5263 5262 5260 5259 5258 5257 5256 5256 5255 5254 5253 5251 5249 5248 5247 5245 5244 5242 5241 5240 5239 5237 5234 5232 5230 5228 5226 5224 5222 5220 5218 5216 5214 5213 5211 5209 5206 5204
5371 5368 5366 5364 5362 5359 5356 5353 5351 5347 5344 5341 5338 5335 5332 5329 5326 5323 5320 5316 5313 5310 5307 5304 5300 5297 5294 5290 5287 5283 5280 5278 5276 5274 5271 5268 5265 5263 5262 5260 5258 5256 5254 5252 5252 5252 5252 5251 5250 5250 5249 5248 5248 5247 5248 5247 5246 5246 5244 5243 5242 5241 5240 5238 5237 5236 5235 5234 5232 5229 5227 5225 5223 5221 5220 5218 5216 5214 5212 5210 5208 5206 5205 5202 5200
5361 5359 5356 5354 5352 5349 5346 5343 5340 5337 5334 5331 5327 5324 5321 5318 5315 5312 5309 5305 5302 5299 5296 5292 5289 5285 5282 5278 5274 5270 5267 5264 5261 5259 5257 5254 5251 5249 5246 5244 5243 5241 5239 5238 5239 5239 5239 5239 5239 5239 5239 5239 5238 5239 5239 5239 5239 5238 5237 5236 5236 5235 5234 5233 5232 5231 5230 5229 5227 5224 5222 5220 5218 5217 5215 5213 5212 5210 5208 5206 5204 5202 5200 5198 5196
5351 5349 5346 5344 5341 5339 5336 5333 5330 5327 5324 5321 5317 5314 5311 5307 5304 5300 5297 5294 5290 5287 5284 5281 5277 5274 5270 5265 5261 5257 5253 5249 5245 5242 5239 5238 5236 5234 5230 5227 5226 5225 5224 5224 5224 5225 5225 5226 5227 5228 5229 5229 5229 5230 5231 5231 5231 5231 5230 5230 5230 5229 5228 5228 5227 5227 5225 5224 5222 5220 5218 5216 5214 5212 5211 5209 5207 5206 5204 5202 5200 5199 5197 5194 5193
5341 5339 5336 5334 5331 5328 5325 5322 5319 5316 5313 5310 5307 5304 5300 5297 5293 5289 5286 5282 5279 5276 5272 5268 5265 5261 5257 5252 5247 5243 5238 5234 5230 5226 5222 5220 5218 5217 5215 5212 5210 5209 5208 5209 5210 5211 5213 5214 5216 5217 5218 5219 5220 5222 5223 5224 5224 5224 5224 5224 5224 5224 5223 5223 5222 5222 5220 5219 5217 5215 5213 5211 5209 5208 5206 5205 5203 5202 5200 5198 5196 5195 5193 5191 5189
5332 5329 5326 5323 5321 5318 5315 5312 5309 5306 5303 5300 5296 5293 5289 5286 5282 5278 5275 5271 5268 5264 5260 5256 5251 5247 5243 5238 5233 5228 5224 5219 5215 5211 5207 5204 5201 5200 5199 5197 5195 5194 5194 5194 5195 5198 5200 5203 5205 5207 5208 5209 5211 5214 5215 5216 5217 5217 5217 5217 5218 5218 5218 5218 5217 5217 5215 5214 5212 5211 5209 5207 5205 5204 5203 5201 5199 5198 5196 5194 5193 5191 5189 5187 5185
5322 5319 5316 5313 5310 5307 5304 5301 5298 5295 5292 5289 5285 5282 5278 5275 5271 5268 5264 5260 5256 5252 5248 5243 5238 5233 5229 5224 5219 5215 5210 5205 5201 5197 5193 5189 5186 5184 5183 5183 5182 5181 5181 5182 5183 5185 5188 5191 5194 5197 5199 5200 5203 5206 5208 5209 5210 5210 5211 5212 5212 5213 5213 5213 5212 5212 5210 5209 5208 5206 5205 5203 5201 5200 5199 5197 5196 5194 5192 5191 5189 5187 5186 5184 5182
5312 5309 5306 5303 5300 5297 5294 5291 5288 5285 5281 5278 5274 5271 5268 5264 5261 5257 5253 5249 5245 5241 5236 5231 5226 5221 5217 5212 5207 5202 5197 5192 5188 5183 5179 5176 5173 5171 5170 5170 5170 5170 5170 5171 5172 5174 5176 5180 5183 5187 5189 5192 5195 5198 5200 5202 5203 5204 5205 5206 5207 5207 5208 5208 5208 5207 5206 5205 5203 5202 5200 5199 5197 5196 5195 5193 5192 5190 5189 5187 5185 5184 5182 5180 5178
5301 5298 5295 5292 5290 5287 5284 5280 5277 5274 5271 5267 5264 5261 5258 5254 5250 5247 5243 5238 5234 5229 5225 5220 5216 5211 5206 5201 5196 5191 5186 5181 5176 5172 5168 5164 5161 5159 5159 5159 5159 5160 5161 5162 5163 5165 5167 5171 5174 5178 5181 5185 5188 5191 5193 5195 5197 5198 5200 5201 5202 5202 5203 5203 5203 5202 5201 5200 5199 5197 5196 5195 5193 5192 5191 5189 5188 5187 5185 5183 5182 5180 5178 5176 5175
5290 5288 5285 5282 5279 5276 5273 5270 5267 5264 5261 5258 5255 5251 5248 5244 5241 5237 5232 5228 5224 5220 5215 5211 5207 5202 5197 5192 5187 5182 5177 5172 5167 5162 5158 5154 5152 5150 5150 5150 5151 5152 5153 5154 5155 5157 5160 5163 5167 5171 5175 5178 5182 5184 5187 5189 5191 5193 5195 5196 5197 5198 5198 5198 5198 5198 5197 5196 5195 5193 5192 5191 5189 5188 5187 5185 5184 5183 5181 5180 5178 5177 5175 5173 5171
5280 5277 5274 5272 5269 5266 5263 5260 5257 5255 5252 5249 5245 5242 5239 5235 5231 5227 5223 5220 5216 5212 5207 5203 5199 5194 5190 5185 5181 5176 5171 5166 5161 5156 5151 5148 5146 5144 5144 5144 5145 5146 5146 5148 5150 5152 5155 5159 5162 5166 5170 5173 5176 5179 5182 5185 5187 5189 5190 5191 5192 5193 5194 5194 5194 5193 5193 5192 5191 5189 5188 5187 5186 5184 5183 5181 5180 5179 5177 5176 5174 5173 5171 5170 5168